• In Belarus
  • List of Countries
  • For 7 days
  • Water Temperature
  • Satellite Maps
  • Weather Map
  • Weather Widgets
  • user-avatar
    Login

    Hourly Weather Essen

    Today, 16 January, Wednesday

    Time Temperature Precipitation Wind Pressure Humidity
    00:00 +5°C° 0 mm 4 mps 753 mmHg 87%
    01:00 +5°C° 0 mm 4 mps 752 mmHg 86%
    02:00 +5°C° 0 mm 5 mps 752 mmHg 84%
    03:00 +5°C° 0 mm 5 mps 751 mmHg 83%
    04:00 +5°C° 0 mm 5 mps 751 mmHg 82%
    05:00 +5°C° 0 mm 5 mps 751 mmHg 80%
    06:00 +5°C° 0 mm 4 mps 750 mmHg 79%
    07:00 +3°C° 0 mm 5 mps 750 mmHg 78%
    08:00 +3°C° 0 mm 5 mps 750 mmHg 77%
    09:00 +3°C° 0 mm 5 mps 750 mmHg 75%
    10:00 +3°C° 0 mm 5 mps 749 mmHg 73%
    11:00 +5°C° 0 mm 5 mps 749 mmHg 71%
    12:00 +5°C° 0 mm 5 mps 749 mmHg 70%
    13:00 +5°C° 0 mm 5 mps 748 mmHg 70%
    14:00 +5°C° 0 mm 5 mps 747 mmHg 70%
    15:00 +5°C° 0 mm 4 mps 746 mmHg 71%
    16:00 +5°C° 0 mm 5 mps 746 mmHg 72%
    17:00 +3°C° 0 mm 5 mps 745 mmHg 73%
    18:00 +3°C° 0 mm 5 mps 745 mmHg 74%
    19:00 +3°C° 0 mm 5 mps 744 mmHg 74%
    20:00 +3°C° 0 mm 5 mps 744 mmHg 74%
    21:00 +2°C° 0 mm 5 mps 743 mmHg 74%
    22:00 +3°C° 1.1 mm 6 mps 743 mmHg 77%
    23:00 +3°C° 1.1 mm 6 mps 743 mmHg 80%

    Tomorrow, 17 January, Thursday

    Time Temperature Precipitation Wind Pressure Humidity
    00:00 +3°C° 1.1 mm 6 mps 742 mmHg 83%
    01:00 +3°C° 0.7 mm 5 mps 743 mmHg 85%
    02:00 +3°C° 0.7 mm 5 mps 743 mmHg 86%
    03:00 +5°C° 0.7 mm 4 mps 743 mmHg 88%
    04:00 +4°C° 0 mm 4 mps 743 mmHg 88%
    05:00 +4°C° 0 mm 4 mps 743 mmHg 87%
    06:00 +3°C° 0 mm 3 mps 743 mmHg 87%
    07:00 +3°C° 0.1 mm 3 mps 743 mmHg 86%
    08:00 +3°C° 0.1 mm 4 mps 743 mmHg 86%
    09:00 +3°C° 0.1 mm 4 mps 744 mmHg 85%
    10:00 +3°C° 2.1 mm 4 mps 743 mmHg 86%
    11:00 +3°C° 2.1 mm 4 mps 743 mmHg 86%
    12:00 +3°C° 2.1 mm 4 mps 743 mmHg 86%
    13:00 +3°C° 0.3 mm 4 mps 744 mmHg 78%
    14:00 +3°C° 0.3 mm 4 mps 744 mmHg 70%
    15:00 +3°C° 0.3 mm 4 mps 745 mmHg 63%
    16:00 +3°C° 0 mm 4 mps 746 mmHg 63%
    17:00 +1°C° 0 mm 5 mps 747 mmHg 63%
    18:00 +1°C° 0 mm 5 mps 748 mmHg 63%
    19:00 0°C° 0 mm 5 mps 748 mmHg 63%
    20:00 0°C° 0 mm 5 mps 749 mmHg 64%
    21:00 0°C° 0 mm 5 mps 750 mmHg 64%
    22:00 0°C° 0 mm 4 mps 750 mmHg 65%
    23:00 0°C° 0 mm 4 mps 751 mmHg 66%

    Day after tomorrow, 18 January, Friday

    Time Temperature Precipitation Wind Pressure Humidity
    00:00 -1°C° 0 mm 4 mps 752 mmHg 67%
    01:00 0°C° 0 mm 3 mps 752 mmHg 70%
    02:00 +1°C° 0 mm 2 mps 753 mmHg 73%
    03:00 -1°C° 0 mm 2 mps 754 mmHg 75%
    04:00 +1°C° 0 mm 1 mps 754 mmHg 76%
    05:00 +1°C° 0 mm 1 mps 755 mmHg 77%
    06:00 +1°C° 0 mm 1 mps 755 mmHg 78%
    07:00 +1°C° 0 mm 1 mps 756 mmHg 77%
    08:00 +1°C° 0 mm 1 mps 756 mmHg 75%
    09:00 +2°C° 0 mm 1 mps 756 mmHg 74%
    10:00 +2°C° 0 mm 1 mps 757 mmHg 70%
    11:00 +3°C° 0 mm 1 mps 757 mmHg 65%
    12:00 +4°C° 0 mm 1 mps 757 mmHg 61%
    13:00 +4°C° 0 mm 1 mps 756 mmHg 61%
    14:00 +4°C° 0 mm 1 mps 756 mmHg 62%
    15:00 +4°C° 0 mm 1 mps 756 mmHg 63%
    16:00 +3°C° 0 mm 1 mps 756 mmHg 65%
    17:00 +2°C° 0 mm 1 mps 756 mmHg 67%
    18:00 +2°C° 0 mm 1 mps 756 mmHg 69%
    19:00 +2°C° 0 mm 1 mps 756 mmHg 69%
    20:00 +1°C° 0 mm 1 mps 756 mmHg 69%
    21:00 +1°C° 0 mm 1 mps 757 mmHg 69%
    22:00 +1°C° 0 mm 1 mps 756 mmHg 70%
    23:00 -1°C° 0 mm 2 mps 756 mmHg 71%

    19 January, Saturday

    Time Temperature Precipitation Wind Pressure Humidity
    00:00 -1°C° 0 mm 2 mps 756 mmHg 72%
    01:00 -1°C° 0 mm 2 mps 756 mmHg 72%
    02:00 -1°C° 0 mm 2 mps 755 mmHg 72%
    03:00 -2°C° 0 mm 2 mps 755 mmHg 71%
    04:00 -2°C° 0 mm 2 mps 755 mmHg 70%
    05:00 -2°C° 0 mm 2 mps 754 mmHg 69%
    06:00 -2°C° 0 mm 2 mps 754 mmHg 68%
    07:00 -1°C° 0 mm 3 mps 754 mmHg 65%
    08:00 -1°C° 0 mm 3 mps 754 mmHg 63%
    09:00 -1°C° 0 mm 3 mps 754 mmHg 60%
    10:00 0°C° 0 mm 3 mps 753 mmHg 56%
    11:00 +1°C° 0 mm 3 mps 753 mmHg 52%
    12:00 +1°C° 0 mm 3 mps 753 mmHg 48%
    13:00 +1°C° 0 mm 3 mps 752 mmHg 49%
    14:00 +2°C° 0 mm 2 mps 752 mmHg 50%
    15:00 +2°C° 0 mm 2 mps 751 mmHg 51%
    16:00 +2°C° 0 mm 2 mps 751 mmHg 53%
    17:00 +1°C° 0 mm 2 mps 751 mmHg 55%
    18:00 0°C° 0 mm 3 mps 751 mmHg 57%
    19:00 +1°C° 0 mm 2 mps 751 mmHg 57%
    20:00 +1°C° 0 mm 2 mps 752 mmHg 57%
    21:00 -1°C° 0 mm 2 mps 752 mmHg 57%
    22:00 -1°C° 0 mm 2 mps 752 mmHg 58%
    23:00 -1°C° 0 mm 2 mps 752 mmHg 60%

    20 January, Sunday

    Time Temperature Precipitation Wind Pressure Humidity
    00:00 -1°C° 0 mm 2 mps 752 mmHg 61%
    01:00 -2°C° 0 mm 2 mps 751 mmHg 61%
    02:00 -2°C° 0 mm 2 mps 751 mmHg 61%
    03:00 -2°C° 0 mm 2 mps 751 mmHg 62%
    04:00 -2°C° 0 mm 2 mps 751 mmHg 62%
    05:00 -1°C° 0 mm 2 mps 751 mmHg 63%
    06:00 -1°C° 0 mm 2 mps 752 mmHg 63%
    07:00 +1°C° 0 mm 1 mps 752 mmHg 63%
    08:00 +1°C° 0 mm 1 mps 752 mmHg 63%
    09:00 +1°C° 0 mm 1 mps 753 mmHg 64%
    10:00 +2°C° 0 mm 1 mps 753 mmHg 61%
    11:00 +3°C° 0 mm 1 mps 753 mmHg 59%
    12:00 +4°C° 0 mm 1 mps 753 mmHg 57%
    13:00 +4°C° 0 mm 1 mps 754 mmHg 59%
    14:00 +4°C° 0 mm 1 mps 754 mmHg 60%
    15:00 +4°C° 0 mm 1 mps 754 mmHg 61%
    16:00 +3°C° 0 mm 1 mps 754 mmHg 64%
    17:00 +2°C° 0 mm 1 mps 755 mmHg 68%
    18:00 +1°C° 0 mm 1 mps 756 mmHg 71%
    19:00 +1°C° 0 mm 1 mps 756 mmHg 72%
    20:00 +1°C° 0 mm 1 mps 757 mmHg 74%
    21:00 0°C° 0 mm 1 mps 757 mmHg 75%
    22:00 0°C° 0 mm 1 mps 758 mmHg 74%
    23:00 0°C° 0 mm 1 mps 758 mmHg 74%

    21 January, Monday

    Time Temperature Precipitation Wind Pressure Humidity
    00:00 0°C° 0 mm 1 mps 758 mmHg 73%
    01:00 0°C° 0 mm 1 mps 758 mmHg 73%
    02:00 0°C° 0 mm 1 mps 759 mmHg 72%
    03:00 0°C° 0 mm 1 mps 759 mmHg 72%
    04:00 0°C° 0 mm 1 mps 759 mmHg 72%
    05:00 0°C° 0 mm 1 mps 759 mmHg 72%
    06:00 0°C° 0 mm 1 mps 759 mmHg 71%
    07:00 0°C° 0 mm 1 mps 760 mmHg 69%
    08:00 0°C° 0 mm 1 mps 760 mmHg 67%
    09:00 +1°C° 0 mm 1 mps 760 mmHg 64%
    10:00 +2°C° 0 mm 1 mps 760 mmHg 59%
    11:00 +2°C° 0 mm 1 mps 760 mmHg 54%
    12:00 +3°C° 0 mm 1 mps 760 mmHg 49%
    13:00 +3°C° 0 mm 1 mps 760 mmHg 49%
    14:00 +3°C° 0 mm 1 mps 759 mmHg 50%
    15:00 +3°C° 0 mm 1 mps 759 mmHg 50%
    16:00 +2°C° 0 mm 1 mps 759 mmHg 53%
    17:00 +1°C° 0 mm 1 mps 759 mmHg 57%
    18:00 0°C° 0 mm 1 mps 759 mmHg 60%
    19:00 0°C° 0 mm 1 mps 759 mmHg 60%
    20:00 -2°C° 0 mm 2 mps 758 mmHg 61%
    21:00 -2°C° 0 mm 2 mps 758 mmHg 62%
    22:00 -2°C° 0 mm 2 mps 757 mmHg 63%
    23:00 -2°C° 0 mm 2 mps 757 mmHg 64%
    Show more